Location: Erta
(42.4260°N, 0.8434°E)
Time: 08:00:29
(UTC+00:00)

Daily predictions for brighter satellites

Satellite Brightness Start Highest point End
(mag) Time Altitude Azimuth Time Altitude Azimuth Time Altitude Azimuth
Cosmos 2297 Rocket 2.2 17:23:07 10° SSW 17:28:43 71° ESE 17:34:22 10° NNE
Okean-O 2.9 17:26:23 10° SE 17:30:37 47° ENE 17:34:52 10° N
CZ-4 R/B 2.5 17:27:54 10° ESE 17:31:12 24° ENE 17:34:33 10° NNE
Meteor 2-10 Rocket 4.1 17:26:29 10° N 17:31:15 34° ENE 17:35:51 10° SE
ATLAS CENTAUR R/B 2.9 17:30:10 10° N 17:32:49 17° NE 17:35:20 10° E
Nadezhda 3 Rocket 4.2 17:27:20 10° N 17:33:39 83° W 17:40:00 10° S
Envisat 3.0 17:29:15 10° SSE 17:34:15 65° ENE 17:39:18 10° N
Cosmos 1980 3.8 17:28:39 10° NNW 17:34:23 86° WSW 17:40:04 10° SSE
H-2A R/B 3.3 17:31:42 10° S 17:35:30 64° W 17:39:23 10° NNW
Cosmos 2219 Rocket 4.3 17:31:30 10° NW 17:36:30 33° WSW 17:41:27 10° SSW
Cosmos 2221 4.4 17:38:27 10° ENE 17:39:02 10° ENE 17:39:38 10° ENE
Cosmos 2227 Rocket 2.2 17:36:07 10° SSW 17:41:46 82° ESE 17:47:27 10° NNE
SMAP 3.7 17:37:47 10° S 17:42:23 62° WSW 17:47:01 10° NNW
Meteor 1-21 Rocket 4.2 17:37:59 10° S 17:43:34 75° E 17:49:17 10° NNE
DELTA 2 R/B (1) 3.9 17:38:22 10° W 17:43:55 67° S 17:49:27 10° E
SKYMED 2 3.9 17:41:26 10° NNE 17:45:38 46° E 17:49:49 10° S
Cosmos 1340 Rocket 3.9 17:41:54 10° NNW 17:45:44 49° W 17:49:37 10° S
Cosmos-2242 3.1 17:41:57 10° N 17:46:11 54° E 17:50:21 10° SSE
SL-8 Rocket 4.1 17:42:27 10° S 17:48:38 60° E 17:54:48 10° NNE
FengYun 1-2 T 4.3 17:45:33 10° SSE 17:51:06 64° ENE 17:56:42 10° N
CZ-4C R/B 4.2 17:45:16 10° NW 17:52:22 47° WSW 18:00:14 10° S
USA 267 3.9 17:46:42 10° NE 17:52:56 49° NNW 17:59:09 10° WSW
YAOGAN 6 2.5 17:53:10 10° SSE 17:56:50 78° ENE 18:00:30 10° N
Cosmos 1356 Rocket 4.3 17:54:27 10° NNE 17:57:54 26° ENE 18:01:22 10° SE
YAOGAN 1 3.0 17:55:51 10° SE 17:59:52 39° ENE 18:03:55 10° N
CZ-4 R/B 4.4 17:59:18 10° SSE 18:03:22 62° ENE 18:07:26 10° N
Cosmos 2341 Rocket 4.3 17:58:24 10° SSW 18:04:46 77° W 18:11:08 10° N
CSL-04 Debris 4.2 18:07:01 10° SSE 18:12:14 54° ENE 18:17:31 10° N
Iridium 96 4.1 18:10:00 10° N 18:12:24 59° W 18:14:54 10° S
Cosmos 1703 3.2 18:09:41 10° S 18:13:37 73° E 18:17:36 10° NNE
ISS -2.5 18:12:27 10° W 18:15:34 33° NNW 18:17:29 19° NNE
Ariane Rocket 3.9 18:13:41 10° ESE 18:17:52 27° ENE 18:22:05 10° N
Cosmos 864 Rocket 4.4 18:19:32 10° S 18:25:39 86° E 18:31:50 10° N
SWAS 4.4 18:22:00 10° SSW 18:26:17 70° ESE 18:29:14 20° NNE
USA 234 3.6 18:20:09 10° SE 18:26:39 67° SW 18:33:10 10° NW
SL-8 R/B 4.1 18:22:14 10° W 18:26:58 54° NNW 18:29:34 25° NE
Cosmos 1939 Rocket 2.8 18:24:23 10° SSE 18:28:13 58° ENE 18:32:09 10° N
Cosmos 2218 Rocket 4.2 18:23:40 10° S 18:30:01 80° W 18:36:28 10° N
Cosmos 1953 Rocket 4.3 18:26:06 10° SSW 18:30:32 56° WNW 18:34:57 10° N
SL-08 R/B 4.4 18:26:56 10° S 18:33:11 73° E 18:39:36 10° NNE
COSMO-SKYMED 1 3.4 18:29:30 10° N 18:33:44 51° WNW 18:37:55 10° SSW
CSL-04 Rocket 3.6 18:28:30 10° SSE 18:34:00 82° ENE 18:39:36 10° NNW
Cosmos 2237 Rocket 4.3 18:30:01 10° NW 18:34:48 29° WSW 18:39:34 10° SSW
Cosmos 1842 Rocket 3.6 18:32:21 10° N 18:36:46 54° E 18:41:09 10° SSE
Cosmos 1455 3.3 18:33:11 10° NNW 18:36:50 45° W 18:40:25 10° SSW
CZ-2D R/B 3.1 18:37:25 10° SSE 18:41:15 85° ENE 18:45:07 10° N
USA 238 DEB 4.3 18:39:25 10° S 18:45:13 33° ESE 18:46:24 31° E
USA 238 4.3 18:39:35 10° S 18:45:21 33° ESE 18:46:27 31° E
ADEOS Rocket 3.3 18:43:51 10° NNE 18:50:37 64° ESE 18:58:01 10° S
Meteor 2-12 Rocket 4.3 18:47:38 10° S 18:53:41 85° E 18:59:46 10° N
H-2A R/B 3.5 18:58:44 21° NNE 18:58:44 21° NNE 19:00:41 10° N
Cosmos 1934 Rocket 4.5 18:52:02 10° SSE 18:56:24 35° ESE 18:56:24 35° ESE
Cosmos 1000 Rocket 4.4 18:51:48 10° N 18:57:58 61° E 19:04:08 10° SSE
Cosmos 2251 Rocket 4.1 18:53:55 10° NNW 18:59:07 57° WSW 19:04:20 10° S
SL-16 R/B 3.1 18:54:13 10° NW 18:59:40 50° WSW 19:05:06 10° S
Shenzhou-11 Module 3.6 18:57:05 10° W 18:58:36 30° W 18:58:36 30° W
Cosmos 2227 4.2 18:55:34 10° S 19:01:11 59° ESE 19:02:34 46° ENE
Atlas Centaur 2 3.6 18:58:45 10° SW 19:02:19 21° S 19:03:39 19° SSE
BREEZE-M DEB (TANK) 3.7 19:02:32 10° WSW 19:05:11 44° SW 19:05:11 44° SW
CZ-4 R/B 3.5 19:02:35 10° SSW 19:06:06 28° W 19:09:41 10° NW
Timation 1 Rocket 4.5 19:04:16 10° S 19:09:53 50° ESE 19:09:53 50° ESE
Meteor 1-27 4.3 19:05:03 10° NNW 19:10:37 74° W 19:16:10 10° S
ATLAS CENTAUR R/B 1.6 19:08:15 10° NW 19:12:08 57° WSW 19:12:17 56° SW
Cosmos 1603 3.6 19:07:00 10° NNW 19:12:38 60° ENE 19:12:45 60° ENE
Cosmos 2297 Rocket 4.5 19:09:16 10° W 19:13:21 20° NW 19:17:28 10° N
Cosmos 2221 2.6 19:12:51 10° NNW 19:17:08 72° W 19:18:42 38° S
Fregat R/B Cluster 11 4.5 19:17:56 10° SW 19:20:58 77° NW 19:30:24 10° NE
Cosmos 2263 Rocket 2.2 19:16:34 10° SSW 19:21:27 61° SSE 19:21:27 61° SSE
DELTA 2 R/B (1) 4.2 19:24:44 10° W 19:30:03 46° SSW 19:30:39 44° S
BREEZE-M DEB (TANK) 4.4 19:03:49 10° WNW 19:34:57 70° NNE 19:36:59 54° ENE
Cosmos 407 Rocket 4.4 19:33:07 10° NNW 19:36:27 40° NNW 19:36:27 40° NNW
Cosmos 44 Rocket 3.9 19:34:12 10° SW 19:38:32 53° WNW 19:38:32 53° WNW
Cosmos 1943 3.8 19:38:40 10° NNW 19:42:37 47° NNW 19:42:37 47° NNW
BREEZE-M DEB (TANK) 4.5 19:43:18 10° WNW 19:53:10 49° NNW 19:53:10 49° NNW
NOSS 3-2 (A) 4.1 19:50:38 10° SSW 19:54:16 43° SSW 19:54:16 43° SSW
Ariane Rocket 4.3 19:51:56 10° SSW 19:56:38 38° W 20:01:22 10° NNW
ATLAS 5 CENTAUR R/B 4.2 19:53:33 10° NW 19:59:28 77° NE 20:27:32 10° SE
FALCON 9 R/B 4.2 20:31:52 10° WSW 20:38:36 28° SW 20:38:36 28° SW
